TimeEST,TemperatureF,Dew PointF,Humidity,Sea Level PressureIn,VisibilityMPH,Wind Direction,Wind SpeedMPH,Gust SpeedMPH,PrecipitationIn,Events,Conditions,WindDirDegrees,DateUTC
12:55 AM,21.0,14.0,74,30.19,10.0,North,3.5,-,N/A,,Clear,10,2013-03-02 05:55:00
1:55 AM,21.2,14.0,74,30.16,10.0,North,4.6,-,N/A,,Clear,10,2013-03-02 06:55:00
2:55 AM,19.9,14.0,78,30.19,10.0,NNW,3.5,-,N/A,,Clear,330,2013-03-02 07:55:00
3:55 AM,18.0,12.0,78,30.18,10.0,NNW,4.6,-,N/A,,Clear,330,2013-03-02 08:55:00
4:55 AM,19.9,12.0,71,30.18,10.0,North,6.9,-,N/A,,Partly Cloudy,360,2013-03-02 09:55:00
5:55 AM,19.0,10.9,71,30.18,10.0,North,5.8,-,N/A,,Clear,360,2013-03-02 10:55:00
6:55 AM,18.0,10.0,71,30.18,10.0,North,5.8,-,N/A,,Clear,10,2013-03-02 11:55:00
7:55 AM,18.0,10.0,71,30.19,10.0,North,3.5,-,N/A,,Scattered Clouds,10,2013-03-02 12:55:00
8:55 AM,19.9,10.0,65,30.20,10.0,North,5.8,-,N/A,,Scattered Clouds,10,2013-03-02 13:55:00
9:52 AM,21.2,10.4,63,30.17,10.0,NNE,12.7,-,N/A,,Mostly Cloudy,20,2013-03-02 14:52:00
9:55 AM,21.9,10.9,63,30.20,10.0,NNE,9.2,-,N/A,,Mostly Cloudy,20,2013-03-02 14:55:00
10:55 AM,21.9,12.9,68,30.19,10.0,NNE,15.0,20.7,N/A,,Overcast,20,2013-03-02 15:55:00
11:55 AM,25.0,14.0,63,30.18,10.0,North,15.0,-,N/A,,Mostly Cloudy,360,2013-03-02 16:55:00
12:55 PM,28.0,15.1,58,30.17,10.0,North,10.4,18.4,N/A,,Scattered Clouds,10,2013-03-02 17:55:00
1:13 PM,28.4,15.8,59,30.12,10.0,NNW,10.4,-,N/A,,Mostly Cloudy,340,2013-03-02 18:13:00
1:38 PM,28.4,14.0,55,30.11,10.0,North,8.1,-,N/A,,Partly Cloudy,10,2013-03-02 18:38:00
1:55 PM,30.0,15.1,54,30.14,10.0,NNW,6.9,-,N/A,,Scattered Clouds,340,2013-03-02 18:55:00
2:55 PM,30.0,15.1,54,30.12,10.0,NNW,10.4,-,N/A,,Mostly Cloudy,330,2013-03-02 19:55:00
3:55 PM,30.9,15.1,52,30.12,10.0,NNW,6.9,-,N/A,,Scattered Clouds,330,2013-03-02 20:55:00
4:55 PM,30.9,15.1,52,30.12,10.0,NW,10.4,-,N/A,,Scattered Clouds,320,2013-03-02 21:55:00
5:55 PM,28.9,16.0,58,30.13,10.0,NW,15.0,-,N/A,,Scattered Clouds,320,2013-03-02 22:55:00
6:55 PM,27.0,15.1,61,30.14,10.0,NNW,13.8,-,N/A,,Partly Cloudy,340,2013-03-02 23:55:00
7:55 PM,25.0,15.1,66,30.15,10.0,NNW,11.5,-,N/A,,Clear,340,2013-03-03 00:55:00
8:55 PM,24.1,14.0,65,30.16,10.0,NNW,10.4,-,N/A,,Clear,330,2013-03-03 01:55:00
9:55 PM,23.0,14.0,68,30.16,10.0,North,8.1,-,N/A,,Clear,360,2013-03-03 02:55:00
10:55 PM,23.0,12.9,65,30.15,10.0,North,5.8,-,N/A,,Clear,360,2013-03-03 03:55:00
11:55 PM,21.0,12.0,68,30.14,10.0,NW,3.5,-,N/A,,Clear,310,2013-03-03 04:55:00